User: anonymous   Login
Location: Aalen
(48.8330°N, 10.1000°E)
Time: 07:17:08
(UTC+02:00)
Language:

deb Explorer IX - Orbit

View from above orbital plane
View from above orbital plane
View from above satellite
View from above satellite

Ground track
Ground track

The orbit data is extracted from the following two-line orbital elements,

1    85U 61004C   21211.74029711  .00005080  00000-0  10906-2 0  9993
2    85  38.7661  95.9287 0382029 342.2022  16.5654 14.21979221989185
Epoch (UTC): 30 July 2021 17:46:01
Eccentricity: 0.0382029
inclination: 38.7661°
perigee height: 544 km
apogee height: 1093 km
right ascension of ascending node: 95.9287°
argument of perigee: 342.2022°
revolutions per day: 14.21979221
mean anomaly at epoch: 16.5654°
orbit number at epoch: 98918

The dashed part of the orbit path shows where the satellite is in the earth's shadow,  

DLR